Time,TemperatureF,DewpointF,PressureIn,WindDirection,WindDirectionDegrees,WindSpeedMPH,WindSpeedGustMPH,Humidity,HourlyPrecipIn,Conditions,Clouds,dailyrainin,SoftwareType,DateUTC
2013-09-23 00:14:00,50.0,-99.9,-100.00,North,-999,-999.0,-999.0,-999,0.00,,,0.68,,2013-09-23 04:14:00,
2013-09-23 00:24:00,50.0,-99.9,-100.00,North,-999,-999.0,-999.0,-999,0.00,,,0.68,,2013-09-23 04:24:00,
2013-09-23 01:30:00,45.0,-99.9,-100.00,North,-999,-999.0,-999.0,-999,-99.99,,,0.68,,2013-09-23 05:30:00,
2013-09-23 02:13:00,45.0,-99.9,-100.00,North,-999,-999.0,-999.0,-999,-99.99,,,0.68,,2013-09-23 06:13:00,
2013-09-23 02:22:00,45.0,-99.9,-100.00,North,-999,-999.0,-999.0,-999,-99.99,,,0.68,,2013-09-23 06:22:00,
2013-09-23 02:30:00,44.0,-99.9,-100.00,North,-999,-999.0,-999.0,-999,0.00,,,0.68,,2013-09-23 06:30:00,
2013-09-23 03:12:00,44.0,-99.9,-100.00,North,-999,-999.0,-999.0,-999,0.00,,,0.68,,2013-09-23 07:12:00,
2013-09-23 03:22:00,44.0,-99.9,-100.00,North,-999,-999.0,-999.0,-999,0.00,,,0.68,,2013-09-23 07:22:00,
2013-09-23 03:30:00,44.0,-99.9,-100.00,North,-999,-999.0,-999.0,-999,0.00,,,0.68,,2013-09-23 07:30:00,
2013-09-23 04:11:00,44.0,-99.9,-100.00,North,-999,-999.0,-999.0,-999,0.00,,,0.68,,2013-09-23 08:11:00,
2013-09-23 04:23:00,44.0,-99.9,-100.00,North,-999,-999.0,-999.0,-999,0.00,,,0.68,,2013-09-23 08:23:00,
2013-09-23 04:30:00,45.0,-99.9,-100.00,North,-999,-999.0,-999.0,-999,0.00,,,0.59,,2013-09-23 08:30:00,
2013-09-23 05:11:00,45.0,-99.9,-100.00,North,-999,-999.0,-999.0,-999,0.00,,,0.59,,2013-09-23 09:11:00,
2013-09-23 05:22:00,45.0,-99.9,-100.00,North,-999,-999.0,-999.0,-999,0.00,,,0.59,,2013-09-23 09:22:00,
2013-09-23 05:30:00,47.0,-99.9,-100.00,North,-999,-999.0,-999.0,-999,0.00,,,0.08,,2013-09-23 09:30:00,
2013-09-23 06:13:00,47.0,-99.9,-100.00,North,-999,-999.0,-999.0,-999,0.00,,,0.08,,2013-09-23 10:13:00,
2013-09-23 06:23:00,47.0,-99.9,-100.00,North,-999,-999.0,-999.0,-999,0.00,,,0.08,,2013-09-23 10:23:00,
2013-09-23 06:30:00,47.0,-99.9,-100.00,North,-999,-999.0,-999.0,-999,0.00,,,0.07,,2013-09-23 10:30:00,
2013-09-23 07:12:00,47.0,-99.9,-100.00,North,-999,-999.0,-999.0,-999,0.00,,,0.07,,2013-09-23 11:12:00,
2013-09-23 07:22:00,47.0,-99.9,-100.00,North,-999,-999.0,-999.0,-999,0.00,,,0.07,,2013-09-23 11:22:00,
2013-09-23 07:30:00,46.0,-99.9,-100.00,North,-999,-999.0,-999.0,-999,0.00,,,0.01,,2013-09-23 11:30:00,
2013-09-23 08:11:00,46.0,-99.9,-100.00,North,-999,-999.0,-999.0,-999,0.00,,,0.01,,2013-09-23 12:11:00,
2013-09-23 08:22:00,46.0,-99.9,-100.00,North,-999,-999.0,-999.0,-999,0.00,,,0.01,,2013-09-23 12:22:00,
2013-09-23 08:30:00,49.0,-99.9,-100.00,North,-999,-999.0,-999.0,-999,0.00,,,0.00,,2013-09-23 12:30:00,
2013-09-23 09:11:00,49.0,-99.9,-100.00,North,-999,-999.0,-999.0,-999,0.00,,,0.00,,2013-09-23 13:11:00,
2013-09-23 09:22:00,49.0,-99.9,-100.00,North,-999,-999.0,-999.0,-999,0.00,,,0.00,,2013-09-23 13:22:00,
2013-09-23 09:30:00,50.0,-99.9,-100.00,North,-999,-999.0,-999.0,-999,0.00,,,0.00,,2013-09-23 13:30:00,
2013-09-23 10:22:00,50.0,-99.9,-100.00,North,-999,-999.0,-999.0,-999,0.00,,,0.00,,2013-09-23 14:22:00,
2013-09-23 10:30:00,52.0,-99.9,-100.00,North,-999,-999.0,-999.0,-999,0.00,,,0.00,,2013-09-23 14:30:00,
2013-09-23 11:12:00,52.0,-99.9,-100.00,North,-999,-999.0,-999.0,-999,0.00,,,0.00,,2013-09-23 15:12:00,
2013-09-23 11:22:00,52.0,-99.9,-100.00,North,-999,-999.0,-999.0,-999,0.00,,,0.00,,2013-09-23 15:22:00,
2013-09-23 11:30:00,53.0,-99.9,-100.00,North,-999,-999.0,-999.0,-999,0.00,,,0.00,,2013-09-23 15:30:00,
2013-09-23 12:12:00,53.0,-99.9,-100.00,North,-999,-999.0,-999.0,-999,0.00,,,0.00,,2013-09-23 16:12:00,
2013-09-23 12:24:00,53.0,-99.9,-100.00,North,-999,-999.0,-999.0,-999,0.00,,,0.00,,2013-09-23 16:24:00,
2013-09-23 12:30:00,55.0,-99.9,-100.00,North,-999,-999.0,-999.0,-999,0.00,,,0.00,,2013-09-23 16:30:00,
2013-09-23 13:12:00,55.0,-99.9,-100.00,North,-999,-999.0,-999.0,-999,0.00,,,0.00,,2013-09-23 17:12:00,
2013-09-23 13:24:00,55.0,-99.9,-100.00,North,-999,-999.0,-999.0,-999,0.00,,,0.00,,2013-09-23 17:24:00,
2013-09-23 13:30:00,59.0,-99.9,-100.00,North,-999,-999.0,-999.0,-999,0.00,,,0.00,,2013-09-23 17:30:00,
2013-09-23 14:13:00,59.0,-99.9,-100.00,North,-999,-999.0,-999.0,-999,0.00,,,0.00,,2013-09-23 18:13:00,
2013-09-23 14:22:00,59.0,-99.9,-100.00,North,-999,-999.0,-999.0,-999,0.00,,,0.00,,2013-09-23 18:22:00,
2013-09-23 14:30:00,58.0,-99.9,-100.00,North,-999,-999.0,-999.0,-999,0.00,,,0.00,,2013-09-23 18:30:00,
2013-09-23 15:12:00,58.0,-99.9,-100.00,North,-999,-999.0,-999.0,-999,0.00,,,0.00,,2013-09-23 19:12:00,
2013-09-23 15:23:00,58.0,-99.9,-100.00,North,-999,-999.0,-999.0,-999,0.00,,,0.00,,2013-09-23 19:23:00,
2013-09-23 15:30:00,56.0,-99.9,-100.00,North,-999,-999.0,-999.0,-999,0.00,,,0.00,,2013-09-23 19:30:00,
2013-09-23 16:12:00,56.0,-99.9,-100.00,North,-999,-999.0,-999.0,-999,0.00,,,0.00,,2013-09-23 20:12:00,
2013-09-23 16:22:00,56.0,-99.9,-100.00,North,-999,-999.0,-999.0,-999,0.00,,,0.00,,2013-09-23 20:22:00,
2013-09-23 16:30:00,56.0,-99.9,-100.00,North,-999,-999.0,-999.0,-999,0.00,,,0.00,,2013-09-23 20:30:00,
2013-09-23 17:12:00,56.0,-99.9,-100.00,North,-999,-999.0,-999.0,-999,0.00,,,0.00,,2013-09-23 21:12:00,
2013-09-23 17:23:00,56.0,-99.9,-100.00,North,-999,-999.0,-999.0,-999,0.00,,,0.00,,2013-09-23 21:23:00,
2013-09-23 17:30:00,54.0,-99.9,-100.00,North,-999,-999.0,-999.0,-999,0.00,,,0.00,,2013-09-23 21:30:00,
2013-09-23 18:14:00,54.0,-99.9,-100.00,North,-999,-999.0,-999.0,-999,0.00,,,0.00,,2013-09-23 22:14:00,
2013-09-23 18:24:00,54.0,-99.9,-100.00,North,-999,-999.0,-999.0,-999,0.00,,,0.00,,2013-09-23 22:24:00,
2013-09-23 18:30:00,51.0,-99.9,-100.00,North,-999,-999.0,-999.0,-999,0.00,,,0.00,,2013-09-23 22:30:00,
2013-09-23 19:12:00,51.0,-99.9,-100.00,North,-999,-999.0,-999.0,-999,0.00,,,0.00,,2013-09-23 23:12:00,
2013-09-23 19:23:00,51.0,-99.9,-100.00,North,-999,-999.0,-999.0,-999,0.00,,,0.00,,2013-09-23 23:23:00,
2013-09-23 19:30:00,49.0,-99.9,-100.00,North,-999,-999.0,-999.0,-999,0.00,,,0.00,,2013-09-23 23:30:00,
2013-09-23 20:12:00,49.0,-99.9,-100.00,North,-999,-999.0,-999.0,-999,0.00,,,0.00,,2013-09-24 00:12:00,
2013-09-23 20:22:00,49.0,-99.9,-100.00,North,-999,-999.0,-999.0,-999,0.00,,,0.00,,2013-09-24 00:22:00,
2013-09-23 20:30:00,47.0,-99.9,-100.00,North,-999,-999.0,-999.0,-999,0.00,,,0.00,,2013-09-24 00:30:00,
2013-09-23 21:12:00,47.0,-99.9,-100.00,North,-999,-999.0,-999.0,-999,0.00,,,0.00,,2013-09-24 01:12:00,
2013-09-23 21:22:00,47.0,-99.9,-100.00,North,-999,-999.0,-999.0,-999,0.00,,,0.00,,2013-09-24 01:22:00,
2013-09-23 21:30:00,43.0,-99.9,-100.00,North,-999,-999.0,-999.0,-999,0.00,,,0.00,,2013-09-24 01:30:00,
2013-09-23 22:12:00,43.0,-99.9,-100.00,North,-999,-999.0,-999.0,-999,0.00,,,0.00,,2013-09-24 02:12:00,
2013-09-23 22:23:00,43.0,-99.9,-100.00,North,-999,-999.0,-999.0,-999,0.00,,,0.00,,2013-09-24 02:23:00,
2013-09-23 22:30:00,42.0,-99.9,-100.00,North,-999,-999.0,-999.0,-999,0.00,,,0.00,,2013-09-24 02:30:00,
2013-09-23 23:12:00,42.0,-99.9,-100.00,North,-999,-999.0,-999.0,-999,0.00,,,0.00,,2013-09-24 03:12:00,
2013-09-23 23:22:00,42.0,-99.9,-100.00,North,-999,-999.0,-999.0,-999,0.00,,,0.00,,2013-09-24 03:22:00,
2013-09-23 23:30:00,41.0,-99.9,-100.00,North,-999,-999.0,-999.0,-999,0.00,,,0.00,,2013-09-24 03:30:00,